Weather in Kyakhta

Russia / Samara Oblast     53°28′56″N   48°44′56″E
temp.,
°C
wind,
m/s
gust,
m/s
humid.,
%
clouds,
%
prec.,
mm/h
press.,
hPa
HPBL,
m
27 february, sat
sat2701:00−7s71295100 2.7 999312
04:00−1sw4119899 3.0 999403
07:00+1wsw5119399 0.1 997555
10:00+1wsw51010099 0.3 997508
13:000wsw58100100 0.7 997423
16:00+1wsw49100100 0.8 997430
19:000w2699100 0.8 998273
22:00−10nnw61293100 2.6 1000416
28 february, sun
sun2801:00−13nnw6139193 0.1 1002443
04:00−15nnw6139194 0.2 1004407
07:00−16nw6139189 0.0 1006355
10:00−16nw6119182 0.0 1008360
13:00−13nnw6109090 0.0 1010485
16:00−12nnw6108995 0.0 1011557
19:00−15nnw489295 0.0 1013216
22:00−17nw499477 0.0 1016221
1 march, mon
mon101:00−18nw349692 0.0 101770
04:00−20nw349757 0.0 101957
07:00−21nw34973 0.0 102049
10:00−18nnw35922 0.0 1022249
13:00−13nnw348555 0.0 1023420
16:00−12nw348978 0.0 1023453
19:00−17nw229562 0.0 102320
22:00−18wsw229531 0.0 102320
2 march, tue
tue201:00−17ssw349880 0.0 102168
04:00−15ssw489682 0.0 1018172
07:00−13ssw61196100 0.0 1014299
10:00−8ssw81395100 0.9 1010474
13:00−3ssw81295100 1.2 1006659
16:00−1sw71197100 2.5 1003658
19:00−1wsw5998100 1.3 1002399
22:00−4wnw5119392 1.4 1002279
3 march, wed
wed301:00−4wnw5129390 0.0 1002333
04:00−6wnw5129466 0.0 1002282
07:00−4wnw6129485 0.1 1003466
10:00−3nw8129092 0.3 1004791
13:00−2nw7118799 0.1 1005940
16:00−3nw81192100 0.2 1006839
19:00−6nw5119397 0.1 1007430
22:00−7nw5139475 0.1 1010404